Theta_e
292 292 292 292 292 293 292 293 294 294 295 295 295 295 295 295 295 293 292 292 290 289 289 288 287 288 287 288 289 290 291 292 287 283 283 281 279 278 279 279 279 278 277
290 290 290 290 290 290 290 290 291 291 292 292 292 291 291 290 291 290 288 288 288 287 286 286 284 285 284 284 284 283 283 284 284 279 277 276 276 277 277 277 278 279 277
290 290 289 289 288 288 288 289 289 289 289 289 289 289 288 288 288 287 287 285 284 284 283 282 282 283 281 281 280 280 279 280 280 280 276 277 276 276 276 276 276 276 278
289 288 287 287 288 287 287 287 287 288 287 287 287 287 287 286 286 285 285 284 283 283 282 282 281 280 279 279 279 278 279 278 278 277 276 275 275 276 275 274 274 275 274
286 285 285 286 286 286 286 286 286 285 285 286 286 286 286 285 284 283 283 282 282 281 281 281 281 282 285 282 279 278 278 277 277 276 275 274 274 274 273 274 273 272 273
283 283 283 284 284 284 284 284 284 284 285 285 284 285 284 285 286 285 283 281 280 279 278 278 279 279 283 284 284 284 281 277 276 276 274 273 273 273 273 273 272 270 269
281 281 282 282 282 282 282 282 281 282 282 282 283 283 283 284 285 284 282 279 278 278 277 277 277 278 277 277 280 280 280 282 280 276 274 273 273 273 273 272 271 271 270
281 281 281 281 281 281 281 280 280 280 280 280 280 281 281 282 284 283 281 279 278 278 278 278 277 277 278 277 276 276 276 276 275 276 274 274 273 274 273 273 271 270 268
280 280 280 280 280 280 279 279 279 279 279 279 280 280 280 281 284 283 281 279 278 277 278 278 278 278 281 281 277 276 275 275 278 279 278 277 277 277 276 271 263 262 261
279 279 280 280 279 278 278 278 279 279 279 279 279 279 278 280 284 283 281 280 278 278 278 278 280 278 281 280 276 276 273 274 274 273 273 274 275 274 276 272 269 261 261
279 279 279 279 279 279 278 278 278 278 278 277 277 277 278 278 280 283 282 279 278 277 277 277 278 281 280 280 278 276 275 274 271 269 268 269 270 271 271 271 271 268 261
276 276 275 276 278 278 277 276 276 276 275 274 274 274 275 277 280 281 282 281 280 278 277 276 276 280 280 279 277 278 278 273 264 262 262 264 266 267 268 267 266 266 268
273 272 272 273 276 276 274 274 273 273 272 272 273 272 272 275 275 281 281 281 281 277 277 277 280 280 280 278 279 279 272 266 264 262 263 265 267 267 264 262 262 259 260
269 269 269 271 271 271 275 274 273 271 271 272 272 271 270 271 272 274 276 276 277 276 277 273 276 277 278 276 271 273 270 268 266 265 264 264 262 260 260 261 260 259 257
270 269 269 270 269 270 271 271 273 272 274 270 270 271 269 270 273 277 276 273 271 274 267 267 266 267 266 266 266 265 266 265 264 263 261 262 262 261 261 259 258 255 258
269 269 269 270 269 270 271 271 279 280 281 281 282 278 275 278 280 281 282 282 282 280 266 264 266 266 267 267 266 267 264 265 266 265 262 262 263 263 261 259 259 256 256
271 271 269 271 270 269 269 269 272 276 282 282 283 283 283 283 282 282 282 282 282 282 274 267 266 267 268 268 267 266 265 266 263 263 263 264 264 262 259 258 258 257 256
266 268 269 269 269 268 269 269 273 274 275 274 276 279 282 282 283 283 283 281 271 271 262 263 266 266 267 267 266 264 265 264 261 264 263 263 262 261 258 260 258 255 255
266 267 267 266 266 269 269 271 274 274 274 273 270 271 269 277 280 281 283 273 269 268 265 267 266 266 266 266 266 265 264 264 264 261 262 262 262 258 259 259 258 257 255
262 265 266 266 265 265 265 266 270 273 272 271 269 264 261 262 262 262 261 260 259 261 262 263 263 263 263 263 262 262 262 261 262 262 263 263 262 259 260 258 255 255 253
260 261 264 262 263 265 265 266 266 264 265 263 264 261 271 261 262 259 259 259 261 261 261 261 261 260 259 258 257 258 259 263 262 261 260 259 255 254 256 257 254 253 254
259 259 259 261 262 263 263 262 262 262 264 266 262 259 273 260 259 259 260 261 260 259 260 259 260 259 260 258 259 258 258 259 258 258 258 257 255 254 252 251 252 251 250
257 258 258 258 260 262 262 261 263 265 263 260 259 259 257 256 256 257 258 259 257 257 256 253 255 257 257 257 256 257 258 259 259 257 257 257 254 254 253 253 253 252 254
255 256 258 257 258 258 259 258 258 259 258 257 255 256 256 255 255 256 256 256 255 255 252 252 252 255 256 256 254 254 255 255 253 256 255 255 256 254 255 255 256 257 257
254 255 255 256 256 257 257 256 257 256 256 257 256 255 254 253 253 253 254 253 252 252 254 253 252 252 254 255 255 255 255 258 257 255 253 253 256 258 260 260 259 257 256
254 255 255 256 257 256 256 257 256 256 255 255 254 253 253 253 252 251 251 251 251 251 253 253 253 254 255 256 256 258 259 263 261 259 256 257 259 260 261 260 258 257 257
Wind_Speed
8 6 10 7 9 10 10 8 6 8 7 9 9 8 7 8 7 8 5 7 9 6 6 6 6 6 4 5 4 3 4 3 4 2 2 3 2 1 2 2 2 2 4
8 7 8 9 10 11 8 8 7 4 8 9 8 8 7 8 6 8 6 6 8 8 6 6 7 6 7 6 4 6 4 4 4 3 1 2 2 1 2 2 2 2 4
5 6 8 8 10 9 8 7 5 7 9 9 8 8 7 8 8 8 7 8 9 8 8 8 6 6 6 4 5 5 4 4 3 4 3 1 1 2 2 2 2 3 3
6 6 7 7 8 7 7 6 7 7 7 8 7 7 6 9 8 8 8 9 9 9 8 8 6 6 6 5 6 5 5 5 4 4 3 2 2 1 2 1 3 2 3
6 7 7 5 6 7 8 8 7 7 7 6 7 8 9 8 5 7 8 8 9 9 8 8 8 8 13 10 4 5 5 4 3 3 3 1 2 3 2 2 3 3 2
6 6 5 7 7 7 8 7 6 6 7 8 9 9 9 7 13 13 9 8 8 8 8 6 6 7 12 16 16 16 9 2 3 2 1 2 1 0 1 2 2 3 4
5 5 5 5 6 6 6 7 5 6 7 9 9 9 9 7 13 13 12 7 7 6 6 5 5 4 5 5 11 13 12 14 11 2 2 1 1 1 1 2 1 1 2
5 5 5 5 6 5 6 5 6 6 7 6 6 6 7 7 13 13 12 6 6 6 5 4 5 4 5 4 5 5 5 5 5 4 4 2 1 2 0 1 2 3 4
4 5 4 4 5 5 5 6 5 5 6 5 4 5 6 6 11 11 8 5 6 5 5 4 4 4 6 6 4 4 3 3 5 5 3 1 1 2 1 2 3 3 4
4 4 4 4 5 5 5 5 3 3 5 4 5 4 4 5 8 8 6 3 4 3 3 4 5 4 6 6 4 4 3 3 3 3 3 3 4 5 5 3 2 2 1
3 4 4 4 5 4 4 2 4 4 4 4 5 4 4 4 3 5 5 2 2 3 2 2 1 3 3 5 5 3 1 2 3 3 3 3 3 4 3 2 3 3 3
3 3 4 3 3 3 4 2 2 3 4 3 4 2 1 2 3 2 1 2 3 2 2 2 1 2 1 1 1 3 4 3 2 1 1 3 2 3 3 2 2 2 3
3 3 3 3 3 3 3 3 2 3 3 2 1 1 1 2 3 4 2 1 1 1 0 3 4 5 5 4 5 7 2 1 0 1 2 2 3 2 3 3 3 2 5
3 1 2 2 3 3 1 2 2 2 2 1 1 2 2 3 3 2 1 2 2 1 2 3 3 3 4 5 2 4 1 2 3 3 3 2 1 2 2 2 1 2 1
1 1 1 2 2 1 1 2 2 2 3 3 3 3 2 3 3 6 4 2 2 3 2 2 2 2 2 2 2 3 3 2 3 2 2 2 2 1 3 1 2 1 2
2 1 2 1 2 2 1 3 5 7 6 8 9 6 3 9 9 7 9 11 11 9 3 1 2 2 3 2 3 4 3 3 4 3 2 2 3 3 3 2 2 2 3
4 3 3 3 3 2 2 2 3 3 10 11 11 12 13 11 9 10 11 11 10 10 5 3 3 3 4 4 4 4 4 4 3 3 3 4 4 3 3 2 3 2 3
4 5 4 3 3 2 3 3 2 3 3 2 5 8 10 13 13 13 13 10 2 4 2 3 4 4 4 5 4 4 4 4 3 4 4 4 4 3 2 4 3 3 3
4 4 4 2 2 3 2 3 3 3 4 3 2 5 4 8 10 12 13 3 4 4 3 4 4 5 4 4 5 4 4 4 4 3 3 3 4 3 4 5 4 5 4
3 5 4 4 3 3 3 3 3 4 4 4 4 4 2 2 2 2 2 1 2 3 3 4 4 4 5 4 4 4 4 3 4 4 5 4 4 4 5 4 4 4 4
2 2 3 2 3 3 4 5 4 3 4 2 4 2 7 3 3 3 3 3 4 4 4 4 4 4 4 4 3 3 4 5 4 4 4 4 3 3 4 4 4 4 4
2 2 2 3 1 1 3 2 2 2 3 4 4 3 9 2 2 3 3 4 4 4 4 4 4 4 4 4 4 4 4 5 4 4 5 4 4 4 3 3 3 3 3
1 2 1 1 1 2 2 2 2 3 3 3 3 3 2 2 3 3 4 4 3 4 3 2 3 4 4 4 4 4 5 5 5 4 5 5 4 4 4 4 4 4 3
0 1 2 1 1 2 2 2 2 3 3 3 2 3 3 3 3 4 4 4 4 4 3 3 3 5 5 5 4 4 4 5 3 5 6 5 5 4 4 4 4 5 4
2 2 2 2 2 2 2 2 2 2 2 2 3 2 3 3 3 4 4 3 3 3 5 4 3 5 7 8 8 8 7 9 7 6 4 4 6 6 6 5 5 3 3
3 3 3 2 2 2 2 2 2 3 3 3 3 3 2 3 3 3 3 3 3 3 5 4 5 7 8 7 8 9 9 10 8 8 5 5 5 5 5 6 6 4 5
Wind_Direction
32 48 44 54 68 56 42 30 58 67 51 64 63 58 68 80 76 74 67 95 91 85 63 65 56 49 50 39 23 23 33 30 95 76 65 35 50 23 16 6 355 6 343
47 40 46 31 59 60 53 22 30 50 75 77 73 70 64 68 74 86 77 73 81 76 67 64 53 56 48 45 42 44 44 29 110 122 111 41 57 339 353 313 326 333 332
38 56 64 52 56 51 51 36 27 45 57 54 65 71 72 81 76 72 80 78 73 71 67 64 51 61 56 45 55 55 44 53 63 123 122 110 28 14 338 332 312 321 330
47 45 64 61 66 69 65 48 41 39 63 71 69 77 84 76 75 78 83 81 81 71 69 66 71 69 70 60 63 56 57 63 57 80 81 83 38 6 56 352 325 332 321
61 55 52 66 91 84 70 58 40 40 49 57 82 79 71 69 78 89 89 91 91 85 72 64 56 59 73 68 69 45 55 66 74 70 76 83 20 13 8 324 294 307 282
67 66 61 57 52 60 74 69 58 57 59 66 60 64 66 75 88 93 93 91 87 88 85 68 60 51 65 69 67 65 64 61 69 89 73 99 171 348 323 312 308 359 331
77 62 66 69 71 64 70 79 73 67 70 64 62 70 72 75 88 88 84 79 81 74 76 80 76 63 63 69 70 66 52 56 59 83 119 123 173 224 277 317 322 287 262
59 72 68 75 77 73 81 81 81 79 76 72 74 75 89 91 94 95 92 86 89 85 87 87 88 87 82 83 83 71 55 55 55 50 63 103 166 193 236 287 312 312 303
97 93 87 85 85 85 83 83 78 78 79 78 77 87 94 97 108 110 104 95 90 84 85 79 86 79 71 70 77 82 81 52 35 34 54 37 329 285 237 66 340 39 317
103 95 99 105 102 100 105 96 84 89 107 95 88 74 91 101 110 110 109 109 116 115 95 99 100 89 73 62 66 48 42 17 357 347 352 340 325 297 283 200 155 140 263
100 97 92 92 102 106 98 89 104 99 87 85 90 64 61 55 90 121 124 121 131 146 158 158 136 118 84 56 60 61 40 81 357 0 335 308 297 284 270 259 200 160 165
79 69 61 58 79 84 100 66 70 106 112 92 94 65 16 22 8 17 100 134 160 138 197 205 226 267 257 279 85 310 310 114 92 11 329 299 292 288 291 292 262 246 243
80 64 47 34 54 72 100 107 88 83 89 72 71 46 323 344 341 318 311 355 2 74 296 241 242 266 269 311 305 298 25 124 188 292 261 243 237 265 306 313 303 280 264
129 131 37 38 24 19 43 120 119 133 113 137 196 267 293 298 299 308 298 344 311 44 2 359 313 291 269 277 341 306 294 220 214 230 242 234 320 337 314 254 276 316 326
142 223 212 152 164 284 279 217 203 217 176 185 212 195 206 268 251 244 230 241 236 239 77 25 11 356 303 307 304 276 272 258 249 235 241 264 271 248 265 231 246 288 214
205 229 232 233 267 219 226 303 257 245 243 246 245 219 219 245 266 269 252 247 245 240 64 169 247 234 249 246 254 268 251 263 253 237 238 228 259 255 258 273 237 215 252
223 213 205 208 211 209 226 203 267 297 260 261 257 256 257 261 256 263 260 257 258 248 223 211 236 222 250 242 242 232 255 244 228 240 235 251 250 251 229 258 252 242 275
220 224 202 209 200 199 210 219 209 237 266 293 289 274 272 268 266 265 259 260 290 295 172 224 242 234 238 245 245 236 250 252 244 248 242 241 242 228 252 257 237 239 255
217 227 218 212 211 218 198 210 221 229 247 259 309 299 330 295 287 276 266 232 219 228 227 244 235 247 245 243 249 246 240 252 252 242 244 237 246 205 248 247 254 240 235
245 240 208 201 202 216 221 220 224 225 231 238 252 252 301 21 333 283 291 284 266 258 249 253 257 250 252 251 248 248 256 255 256 245 248 242 243 216 247 246 228 244 229
251 252 229 205 215 210 207 221 230 217 237 240 251 228 253 197 258 242 264 263 252 253 257 250 254 252 244 242 244 257 251 261 253 252 248 247 230 245 235 237 238 233 241
226 225 201 213 218 236 249 226 227 231 249 266 272 287 297 349 268 264 265 262 252 240 242 242 257 248 246 237 242 241 243 249 250 248 252 247 239 237 231 235 247 244 238
219 208 222 246 221 232 241 228 231 237 252 251 263 284 289 272 270 271 275 279 278 276 263 243 253 273 258 251 235 230 237 246 237 223 246 245 237 235 220 234 229 244 235
335 240 225 228 181 194 212 232 234 236 241 257 269 268 274 276 276 277 281 292 304 302 297 284 262 267 286 282 262 250 242 252 236 241 235 241 250 233 228 229 232 237 247
54 33 13 346 343 337 352 348 342 338 328 321 315 312 317 322 322 315 312 314 312 316 306 299 282 276 280 288 286 277 259 264 249 230 221 221 241 243 250 247 248 233 229
51 54 52 47 44 40 41 21 9 8 3 354 350 347 332 329 311 308 307 310 304 291 292 282 282 287 287 277 276 278 272 273 260 232 213 214 235 242 240 241 240 231 246